Tracking 31011 objects as of 13-Jul-2025
HD Live streaming from Space Station
objects crossing your sky now

CZ-6A DEB

Track CZ-6A DEB now!
10-day predictions


NORAD ID: 56645
Int'l Code: 2022-151AFV
Perigee: 813.1 km
Apogee: 870.2 km
Inclination: 98.8 °
Period: 101.6 minutes
Semi major axis: 7212 km
RCS: Unknown
Launch date: November 11, 2022
Source: People's Republic of China (PRC)
Launch site: Taiyaun Space Center, China (TSC)

Note: This is SATELLITE DEBRIS
Your satellite tracking list
Your tracking list is empty




NASA's NSSDC Master Catalog

Two Line Element Set (TLE):
1 56645U 22151AFV 25191.79174035  .00001082  00000-0  55326-3 0  9996
2 56645  98.7982 196.6006 0039595 237.8996 121.8332 14.17290255114556
Source of the keplerian elements: AFSPC